Location: Düngen
(52.0952°N, 10.0219°E)
Time: 15:48:55
(UTC+00:00)

Cosmos 2084 - Pass Details

Date: 11 March 2026
Orbit: 541 x 557 km, 62.8° (Epoch: 14 April)

Event Time Altitude Azimuth Distance (km) Brightness Sun altitude
Rises 19:11:00 0° 312° (NW) 2,735 8.1 -18.0°
Reaches altitude 10° 19:13:13 10° 312° (NW) 1,834 7.0 -18.4°
Maximum altitude 19:17:21 82° 225° (SW) 560 3.3 -19.0°
Enters shadow 19:18:32 45° 144° (SE) 751 3.6 -19.1°
